Regional Weather Roundup
Issued by NWS

Home | Current Version | Previous Version | Graphics & Text | Print | Product List | Glossary On
Versions: 1 2 3 4 5 6 7 8 9 10 11 12 13 14 15 16 17 18 19 20 21 22 23 24 25 26 27 28 29 30 31 32 33 34 35 36 37 38 39 40 41 42 43 44 45 46 47 48 49 50
000
ASUS45 KTFX 291619
RWRMT
MONTANA HOURLY WEATHER ROUNDUP
NATIONAL WEATHER SERVICE GREAT FALLS MT
1019 AM MDT TUE JUL 29 2014

NOTE: "FAIR" INDICATES FEW OR NO CLOUDS BELOW 12000 FEET WITH NO
SIGNIFICANT WEATHER AND/OR OBSTRUCTIONS TO VISIBILITY.

* THESE STATIONS ARE NOT UNDER NWS QUALITY CONTROL. THEY DO NOT
   REPORT WEATHER SUCH AS PRECIPITATION OR FOG.

MTZ001>007-043-291700-
WEST OF THE DIVIDE
CITY           SKY/WX    TMP DP  RH WIND       PRES   REMARKS
KALISPELL      SUNNY     72  52  49 NE9       30.18S
MISSOULA       SUNNY     72  45  38 CALM      30.20F
BUTTE          SUNNY     70  45  41 CALM      30.31F
MULLAN PASS    SUNNY     73  45  37 VRB3      30.35S
* LINCOLN      N/A       66  48  52 E2         N/A
* LOOKOUT PASS N/A       71  49  46 SE5        N/A
* POLSON       N/A       72  52  49 N2         N/A
* RONAN APT    SUNNY     75  57  54 N/A        N/A
* SEELEY LAKE  N/A       71  47  43 SE2        N/A
* THOMP F APT  SUNNY     66  43  43 N5G12      N/A
* YAAK HILL    N/A       68  49  51 SE4        N/A
$$

MTZ008-052>055-291700-
SOUTHWEST MONTANA
CITY           SKY/WX    TMP DP  RH WIND       PRES   REMARKS
BOZEMAN        SUNNY     72  48  43 VRB6      30.25F
DILLON         SUNNY     70  50  49 SW6       30.28F
W YELLOWSTONE  CLOUDY    57  52  83 CALM      30.39F
* THREE FORKS  SUNNY     73  63  71 N/A        N/A
* BOULDER HILL N/A       67  40  37 VRB9       N/A
* MONIDA PASS  N/A       61  47  60 W7         N/A
* RAYNOLDS PAS N/A       57  47  69 SW1G6      N/A
* WHITEHALL    N/A       69  51  53 E2G7       N/A
* WISE RIVER   N/A       61  46  58 W4         N/A
$$

MTZ009>010-012-014-046-048-049-054-291700-
EAST SLOPES AND CENTRAL MONTANA
CITY           SKY/WX    TMP DP  RH WIND       PRES   REMARKS
CUT BANK       SUNNY     73  50  44 CALM      30.23S
GREAT FALLS    SUNNY     75  48  39 SW6       30.21S
HELENA         PTCLDY    73  46  38 W5        30.23S
MALMSTROM AFB  PTCLDY    75  50  42 VRB2      30.22S
* CONRAD       SUNNY     70  55  59 N5         N/A
* DEARBORN     N/A       76  49  39 N1         N/A
* EAST GLACIER N/A       74  48  40 S2         N/A
* ROGERS PASS  N/A       73  43  34 E4         N/A
* SAINT MARY   N/A       66  50  56 NW2        N/A
* SWEET GRASS  N/A       76  46  35 S10G16     N/A
* WHITE SULPH  N/A       75  47  37 NE6G12     N/A
$$

MTZ011-013-016-021-035-040-045-047-050-051-291700-
NORTH CENTRAL MONTANA
CITY           SKY/WX    TMP DP  RH WIND       PRES   REMARKS
HAVRE          SUNNY     77  52  42 CALM      30.19S
LEWISTOWN      PTCLDY    79  46  31 E15       30.26S
* FORT BENTON  SUNNY     82  48  31 E6        30.19S
* CHESTER      N/A       76  49  39 E6G11      N/A
* DENTON       N/A       79  48  34 SE12       N/A
* GEYSER       N/A       79  53  41 VRB1       N/A
* JUDITH GAP   N/A       72  51  48 S9G15      N/A
* LOMA         N/A       79  50  36 E8G13      N/A
$$

MTZ017>020-022>027-061-062-291700-
NORTHEAST MONTANA
CITY           SKY/WX    TMP DP  RH WIND       PRES   REMARKS
GLASGOW        SUNNY     82  48  31 E9        30.20F
GLENDIVE       PTSUNNY   73  54  51 N5        30.24S
JORDAN         PTCLDY    81  46  29 E7        30.20S
SIDNEY         PTCLDY    75  57  54 SE3       30.22S
WOLF POINT     SUNNY     75  54  48 E5        30.21F
* BEAVER HILL  N/A       73  54  51 SW7        N/A
* CIRCLE       N/A       77  56  48 NE6        N/A
* LINDSAY DVD  N/A       72  54  53 NW8        N/A
$$

MTZ028>042-056>058-291700-
SOUTHCENTRAL AND SOUTHEAST MONTANA
CITY           SKY/WX    TMP DP  RH WIND       PRES   REMARKS
BAKER          PTSUNNY   73  54  51 N5        30.25S
BILLINGS       PTCLDY    75  52  45 S7        30.23F
LIVINGSTON     SUNNY     75  45  34 E8        30.28F
MILES CITY     CLOUDY    70  54  57 S5        30.23S
* LAUREL APT   PTCLDY    73  48  41 N/A        N/A
* ROUNDUP APT  PTSUNNY   79  43  28 NE9        N/A
* ALZADA       N/A       70  53  55 E1         N/A
* HYSHAM       N/A       69  51  53 E15        N/A
* LAME DEER    N/A       72  54  53 SE2        N/A
* REED POINT   N/A       76  50  40 N2         N/A
* ROSCOE HILL  N/A       71  44  38 SW1        N/A
$$

REGIONAL REPORTS...DAKOTAS
CITY           SKY/WX    TMP DP  RH WIND       PRES   REMARKS
WILLISTON      SUNNY     73  55  53 CALM      30.21S
DICKINSON      PTCLDY    75  55  50 S8        30.22F
CROSBY         SUNNY     72  63  73 N5        30.22S
TIOGA          SUNNY     72  57  59 SE5       30.24F
WATFORD CITY   SUNNY     73  55  53 CALM      30.19F
BISMARCK       SUNNY     72  54  53 NW3       30.24S
GRAND FORKS    SUNNY     72  55  55 NW5       30.17S
FARGO          SUNNY     73  55  53 NW5       30.18S
BUFFALO SD     SUNNY     72  54  53 S9        30.19F
RAPID CITY     CLOUDY    66  54  65 SE5       30.26S
$$

REGIONAL REPORTS...WYOMING/IDAHO/WASHINGTON
CITY           SKY/WX    TMP DP  RH WIND       PRES   REMARKS
GILLETTE       LGT RAIN  63  57  81 W9        30.31F
SHERIDAN       CLOUDY    68  59  73 S3        30.27S
YELLOWSTONE LA CLOUDY    57  46  67 CALM      30.47S
SALMON         PTCLDY    72  48  43 CALM      30.21F
MULLAN PASS    SUNNY     73  45  37 VRB3      30.35S
SAND POINT     SUNNY     73  52  48 NE6       30.13S
SPOKANE        SUNNY     77  46  33 NE8       30.11R
$$

REGIONAL REPORTS...ALBERTA
CITY           SKY/WX    TMP DP  RH WIND       PRES   REMARKS
CALGARY        SUNNY     73  50  44 CALM      30.20S
LETHBRIDGE     N/A       73  54  51 S8        30.19S
MEDICINE HAT   N/A       75  52  45 NE6       30.18S
EDMONTON       SUNNY     70  63  79 CALM      30.14S
WATERTON GATE  N/A       73  52  48 SW7        N/A
CARDSTON       N/A       75  59  58 SE3        N/A
MILK RIVER     N/A       79  48  34 S8         N/A
$$

REGIONAL REPORTS...SASKATCHEWAN
CITY           SKY/WX    TMP DP  RH WIND       PRES   REMARKS
SWIFT CURRENT  SUNNY     75  54  48 SE9       30.23F
MOOSE JAW      SUNNY     73  61  66 NW5       30.24S
REGINA         SUNNY     73  61  66 NW7       30.23S
VAL MARIE      N/A       77  54  45 E9         N/A
ASSINIBOIA     N/A       72  57  59 E6         N/A
CORONACH       N/A       75  54  48 NE8        N/A

$$



USA.gov is the U.S. government's official web portal to all federal, state and local government web resources and services.